Location: Saint-Palais-sur-Mer
(45.6429°N, 1.0859°W)
Time: 23:47:58
(UTC+01:00)

Tiros 1 despin weight - Pass Details

Date: 16 February 2026
Orbit: 556 x 593 km, 48.2° (Epoch: 13 March)

Event Time Altitude Azimuth Distance (km) Brightness Sun altitude
Rises 16:20:41 0° 219° (SW) 2,731 ? 19.1°
Reaches altitude 10° 16:23:05 10° 210° (SSW) 1,835 ? 18.8°
Maximum altitude 16:26:50 33° 146° (SE) 950 ? 18.3°
Drops below altitude 10° 16:30:36 10° 82° (E) 1,837 ? 17.8°
Sets 16:33:00 0° 72° (ENE) 2,734 ? 17.5°
